SL-8 DEB, 21252

Orbit data source: Space-Track

SL-8 DEB, 21252 is space debris in LEO originally from a launch on Tue, 12 Feb 1991 UTC launched from the Plesetsk Missile And Space Complex (PKMTR). Debris objects in space refer to the collection of defunct objects orbiting the Earth. Examples of debris include non-operational satellites, rocket bodies, and fragments generated from explosions, collisions, or faulty payload assembly.

Loading next visibility...
Identifier
21252, 1991-009BK
Orbit
LEO
Country
Flag of CISCIS
Related business
Manufacturer
Unknown
Mission
Spacecraft
Bus & Motor
Unknown
Mass
Unknown
Launch date (UTC)
1991-02-12 (35 years ago)
Launch vehicle
Unknown
Launch site
Plesetsk Missile And Space Complex (PKMTR)
Object type
Payload
Rocket body
Debris
Shape & HBR
Unknown shape, 0.1 m
Radar Cross Section
Medium (>0.1 m² and <1 m²)

Expand to show TLE details & history
Last TLE update: 2 days ago

TLE from 2 days ago
0 SL-8 DEB
1 21252U 91009BK  26171.29263225  .00000088  00000-0  90414-3 0  9996
2 21252  74.1046 113.6116 0124141  29.6835 122.2002 12.24986475577388
Epoch: 2026-06-20T07:01Z
TLE epoch observation values (Epoch: 2026-06-20T07:01:23.426Z)
Latitude
25.8499°
Longitude
-88.1373°
Altitude
1,626.983 km
Speed
7.036 km/s
True Right ascension
19h 02m 52s
True Declination
25° 43' 47"
Sunlit
Object was in full shadow at epoch
Visualization orbit readout
Latitude
Unknown
Longitude
Unknown
Altitude
Unknown
Speed
Unknown
Apparent Right ascension
Unknown
Apparent Declination
Unknown
Sunlit
N/A
Visualization observer readout
Local Sidereal Time
00:50:51
Azimuth
Unknown
Elevation
Unknown
Doppler factor
Unknown
Orbital elements
Apogee altitude
1,667.408 km
Perigee altitude
1,470.101 km
Semi-major axis
7,946.891 km
Eccentricity
0.01241
Inclination
74.1046°
RAAN
113.6116°
Arg. of periapsis
29.6835°
True anomaly
123.39399°
Mean anomaly
122.2002°
Eccentric anomaly
122.79809°
Mean motion
3.06371 °/min
Orbital period
117.5 mins
BSTAR
0.00090414
Loading maneuver chart data...
Computing Atmospheric mass density...
Loading historical data...
Loading historical data...
Loading historical data...
Loading historical data...
Loading historical data...
Loading historical data...
Loading historical data...

Documentation

Showing up to 5 results
|